Location: Altenst�hlen
(53.5567°N, 8.9425°E)
Time: 11:35:42
(UTC+00:00)

STARLINK-35 - Pass Details

Date: 23 October 2019
Orbit: 548 x 551 km, 53.0° (Epoch: 12 November)

Event Time Altitude Azimuth Distance (km) Brightness Sun altitude
Rises 18:14:16 0° 280° (W) 2,720 8.8 -19.0°
Reaches altitude 10° 18:16:30 10° 278° (W) 1,826 7.5 -19.3°
Maximum altitude 18:20:37 67° 196° (SSW) 598 3.7 -19.9°
Enters shadow 18:21:29 51° 138° (SE) 698 3.8 -20.0°
